Latest METARs, TAFs and NOTAMs for LCLK


---------------------------------------------------------------------------
	(OBSERVATIONS)
LCLK 260830Z 19010KT 160V220 9999 FEW020 32/19 Q1008 NOSIG=
LCLK 260800Z 21009KT 9999 FEW020 31/20 Q1008 NOSIG=
LCLK 260730Z 19010KT 9999 FEW020 30/20 Q1008 NOSIG=
LCLK 260700Z 18008KT 150V280 9999 FEW020 30/19 Q1008 NOSIG=
LCLK 260630Z 16007KT CAVOK 31/17 Q1008 NOSIG=
LCLK 260600Z 10003KT 060V130 CAVOK 31/13 Q1008 NOSIG=
---------------------------------------------------------------------------
	(FC)
Sorry, FC For LCLK Not Found
---------------------------------------------------------------------------
	(TERMINAL AREA FORECAST)
LCLK 260530Z 2606/2706 03008KT CAVOK
    BECMG 2608/2612 19012KT
    BECMG 2617/2621 31006KT=
---------------------------------------------------------------------------
	(NOTAMS)


LCLK A0016/10 THERE ARE FREQUENT REPORTS OF LASER LIGHTS DIRECTED
    AT ACFT MOSTLY FROM THE FOLLOWING AREAS: 1.ON ARRIVALS FROM
    NW WITHIN OF 20NM FROM AD 2.ON LETDOWN PROCEDURES RWY22 AIRCREW
    SHALL BE VIGILANT TO SUCH EVENTS AND REPORT THEM TO ATC PASSING
    WHERE POSSIBLE INFO AS TO THE LOCATION. 12 JAN 09:27 2010
    UNTIL PERM. CREATED: 12 JAN 09:37 2010

LCLK A0018/16 REF AIP SUP 001/2016 HAND AMEND ADLAS1V APPROACH
    PROCEDURE TO READ ADLAS1W AND SOBOS1V APPROACH PROCEDURE
    TO READ SOBOS1W. 11 JAN 13:36 2016 UNTIL PERM. CREATED: 11
    JAN 13:38 2016

LCLK A0026/16 REF AIRAC AIP SUP 001/2016 EFF 04 FEB 16 HAND AMEND
    BOSIS RNAV VISUAL RWY22 TABLE LK508 COORDINATES TO READ 345343.73N
    0334704.69E. 15 JAN 13:09 2016 UNTIL PERM. CREATED: 15 JAN
    13:11 2016

LCLK A0110/12 NEW HELIPAD FOR CYPRUS POLICE USE ONLY ESTABLISHED
    250 METERS NORTH OF THE ATC TOWER ENCLOSED BY THE FOLLOWING
    COORDINATES: 3452.502N03337.012E 3452.528N03337.013E 3452.518N03337.185E
    3452.465N03337.118E HOURS OF OPERATION: H24. 08 FEB 14:53
    2012 UNTIL PERM. CREATED: 08 FEB 15:02 2012

LCLK A0211/17 OBSTACLE ERECTED TYPE: CRANE COORDINATES: 345406.34N0333812.87E
    HEIGHT: 48M AGL ELEVATION AT TOP: 66M AMSL MARKED,LIGHTED.
    17 FEB 10:59 2017 UNTIL PERM. CREATED: 17 FEB 11:03 2017

LCLK A0523/17 IN CASE OF VISUAL DOCKING GUIDANCE SYSTEM FAILURE
    OR MARSHALLER UNAVAILABILITY ON STAND, AIRCRAFT SHALL HOLD
    BEFORE ENTERING THE STAND AND ADVISE AIR TRAFFIC CONTROL.
    06 APR 07:51 2017 UNTIL PERM. CREATED: 06 APR 07:51 2017

LCLK A0529/17 NEW AIS HEADQUARTERS CONTACT DETAILS POST: AERONAUTICAL
    INFORMATION SERVICE LARNAKA CONTROL TOWER LARNAKA INTL AIRPORT
    LARNAKA CYPRUS CY-1729 PHONE: +357 24802921 / 3 FAX: +357
    24304706 SITA: LCAAPYA AFS: LCNCZPZX EMAIL: LCAAIS(A)CYTANET.COM.CY
    REF AIP GEN 3.1.2. 07 APR 12:40 2017 UNTIL PERM. CREATED:
    07 APR 12:42 2017

LCLK A0681/17 TRIGGER NOTAM - PERM AIRAC AIP AMDT 002/17 WEF
    22 JUN 2017 ALL EXISTING IAC CHARTS - AD 2.LCLK 2.24.2.1
    TO AD 2.LCLK 2.24.2.11 UPDATED NEW IAC CHART AD 2.LCLK 2.24.2.12
    - BOSIS RNP TO ILS-P (GNSS) RWY 22 NEW IAC CHART AD 2.LCLK
    2.24.2.13 - SOBOS RNP TO ILS-P (GNSS) RWY 22 STAR RWY 04
    - AD 2.LCLK 2.24.3.2 UPDATED NEW STAR AD 2.LCLK 2.24.3.3
    - RNAV (GNSS) RWY 22 NEW STAR AD 2.LCLK 2.24.3.4 - RNAV (GNSS)
    RWY 04 NEW SID AD 2.LCLK 2.24.4.5 - RNAV (GNSS) RWY 22 NEW
    VAC AD 2.LCLK 2.24.5.1 - RNAV (GNSS) RWY 22. 22 JUN 00:00
    2017 UNTIL 06 JUL 23:59 2017. CREATED: 15 MAY 06:59 2017

LCLK A0694/12 OBSTACLE ERECTED TYPE: ANTENNA COORDINATES: 345228.69N0333700.25E
    ELEVATION AT TOP: 39.5M AMSL MARKED AND LIGHTED (RED. 16
    AUG 18:42 2012 UNTIL PERM. CREATED: 16 AUG 18:46 2012

LCLK A0695/12 OBSTACLE ERECTED TYPE: WIND MEASUREMENT MAST COORDINATES:
    345227N 0333110E HEIGHT : 50M AGL ELAVATION AT TOP : 240M
    AMSL MARKED AND LIGHTED. 16 AUG 18:48 2012 UNTIL PERM. CREATED:
    16 AUG 18:50 2012

LCLK A0762/15 OBSTACLE ERECTED NAME: LC-0005CR TYPE: CRANE COORDINATES:
    345554.27N0333814.51E HEIGHT: 65.5M AGL ELEVATION AT TOP:
    71M AMSL MARKED AND LIGHTED. 24 JUN 07:35 2015 UNTIL PERM.
    CREATED: 24 JUN 07:40 2015

LCLK A0890/17 TAXILANE CU CLOSED DUE TO WIP. 27 JUN 11:00 2017
    UNTIL 27 JUN 12:30 2017. CREATED: 19 JUN 08:27 2017

LCLK A0924/15 FOR FLIGHT PLANNING PURPOSES ALL ARRIVALS TO LCA
    ENTERING NICOSIA FIR VIA TOSKA, EVENO, TOMBI MUST ROUTE TO
    BONEK FOR THE BONEK1A ARRIVAL. ALL OTHER STARS AVAILABLE
    ONLY BY ATC. 31 JUL 00:01 2015 UNTIL PERM. CREATED: 30 JUL
    11:29 2015

LCLK A1180/14 OBSTACLE ERECTED TYPE: ANTENNA COORDINATES: 345330.64N0333816.55E
    HEIGHT:28.69M AGL ELEVATION AT TOP: 31.25M AMSL MARKED AND
    LIGHTED (RED. 13 NOV 05:00 2014 UNTIL PERM. CREATED: 11 NOV
    11:52 2014

LCLK A1197/14 FOR FLIGHT PLANNING PURPOSES ALL DEPARTURES LCA
    RWY22 EXITING NICOSIA FIR VIA TOSKA, EVENO, TOMBI MUST ROUTE:
    1. PAFOS 2B PHA DCT GENOS DCT TOSKA 2. PAFOS 2B PHA DCT GENOS
    DCT PEDER DCT EVENO 3. PAFOS 2B PHA DCT GENOS DCT PEDER A16/UA16
    TOMBI ALL OTHER SIDS ONLY AVAILABLE BY ATC. 13 NOV 13:58
    2014 UNTIL PERM. CREATED: 13 NOV 13:59 2014

LCLK A1235/14 A GROUP OF FOUR (4) CRANES ERECTED AT LARNAKA PORT
    AT THE FOLLOWING POSITIONS: 345542.50N0333839.08E HEIGHT
    47M AT THE TOP 49.3M AMSL NOT LIGHTED 345529.26N0333840.08E
    HEIGHT 84M AT THE TOP 86.3M AMSL LIGHTED 345525.08N0333830.27E
    HEIGHT 84M AT THE TOP 86.3M AMSL LIGHTED 345526.30N0333829.02E
    HEIGHT 50M AT THE TOP 52.3M AMSL LIGHTED. 26 NOV 11:46 2014
    UNTIL PERM. CREATED: 26 NOV 11:48 2014

---------------------------------------------------------------------------